Regional Weather Roundup
Issued by NWS

Home | Current Version | Previous Version | Graphics & Text | Print | Product List | Glossary On
Versions: 1 2 3 4 5 6 7 8 9 10 11 12 13 14 15 16 17 18 19 20 21 22 23 24 25 26 27 28 29 30 31 32 33 34 35 36 37 38 39 40 41 42 43 44 45 46 47 48 49 50
000
ASUS43 KLOT 021506
RWRIL

ILLINOIS REGIONAL WEATHER ROUNDUP
NATIONAL WEATHER SERVICE CHICAGO/ROMEOVILLE IL
1000 AM CDT THU OCT 02 2014

NOTE: "FAIR" INDICATES FEW OR NO CLOUDS BELOW 12,000 FEET WITH NO
SIGNIFICANT WEATHER AND/OR OBSTRUCTIONS TO VISIBILITY.

* THESE STATIONS ARE NOT UNDER NWS QUALITY CONTROL. THEY ALSO MAY NOT
  REPORT WEATHER SUCH AS PRECIPITATION OR FOG.

ILZ001-002-007-009-015-016-024-021600-
NORTHWEST ILLINOIS

CITY           SKY/WX    TMP DP  RH WIND       PRES   REMARKS
MOLINE         PTSUNNY   66  64  93 SE8       29.83S
SAVANNA*       FAIR      69  64  82 S6        29.82F
$$

ILZ003-004-008-010-011-017-018-021600-
NORTH CENTRAL ILLINOIS

CITY           SKY/WX    TMP DP  RH WIND       PRES   REMARKS
ROCKFORD       CLOUDY    70  62  76 S7        29.85F
FREEPORT*      FAIR      66  62  86 CALM      29.84F
ROCHELLE*      FAIR      70  63  78 S7        29.86S
DE KALB*       FAIR      67  63  86 S8        29.86F
PERU*          CLOUDY    68  65  88 S7        29.87R
$$

ILZ005-006-012>014-019>023-021600-
NORTHEAST ILLINOIS

CITY           SKY/WX    TMP DP  RH WIND       PRES   REMARKS
CHICAGO-OHARE  CLOUDY    69  62  78 S9        29.87F
CHICAGO-MIDWAY CLOUDY    70  63  78 S7        29.88S
AURORA         FAIR      70  63  78 SE8       29.86F
LANSING*       CLOUDY    65  62  88 SE3       29.91R
JOLIET*        CLOUDY    67  63  86 SE5       29.88S
WAUKEGAN       FAIR      69  62  78 S9        29.86
DUPAGE AIRPORT FAIR      70  64  81 S8        29.86F
KANKAKEE*      CLOUDY    65  64  97 E3        29.89F FOG
WHEELING       FAIR      70  62  76 S9        29.88F
MORRIS*        CLOUDY    69  65  88 S5        29.87S
ROMEOVILLE*    CLOUDY    67  63  85 SE7       29.88F
NORTHERLY ISL    N/A     65  61  87 SE6         N/A
$$

LMZ740>746-021600-
SOUTHERN LAKE MICHIGAN

STATION/POSITION SKY/WX   TEMP    WIND        PRES    VSBY  WAVE
                          AIR SEA DIR/SP/G                  HT/PER
                          (F)     (DEG/KT/KT) (MB)    (MI)  (FT/S)
SOUTHERN BUOY              63 62  180/ 16/ 17 1011.7R         3/ 5
WAUKEGAN HARBOR            64     170/ 11/ 12   N/A
HARRISON CRIB              64     160/ 10/ 11   N/A
BURNHAM HARBOR             65     130/  5/  7   N/A
CALUMET HARBOR             65     150/  4/  6 1011.2F
MICHIGAN CITY              66     150/  8/ 14   N/A
MICHIGAN CITY 6N           65 64  190/  4/  6   N/A           1
ST. JOSEPH                 63 63  130/  8/  8   N/A           1
$$

ILZ025>027-034>036-040-047-049-050-058-095>099-021600-
WEST-CENTRAL ILLINOIS

CITY           SKY/WX    TMP DP  RH WIND       PRES   REMARKS
QUINCY         LGT RAIN  66  63  90 S17G26    29.81F
GALESBURG*     PTSUNNY   65  65  97 CALM      29.84F
MACOMB*        PTSUNNY   64  64 100 CALM      29.86R
JACKSONVILLE*  LGT RAIN  69  67  92 S9        29.86F
PITTSFIELD*    LGT RAIN  66  64  91 SW7       29.89S
$$

ILZ028>032-037-038-041>044-048-051>054-059>061-021600-
CENTRAL ILLINOIS

CITY           SKY/WX    TMP DP  RH WIND       PRES   REMARKS
PONTIAC        PTSUNNY   70  66  88 CALM      29.86F
BLOOMINGTON    MOSUNNY   70  66  88 S12         N/A
DECATUR        FAIR      71  67  87 S12       29.88R
PEORIA         FAIR      69  64  84 S9        29.85S
LACON*         CLOUDY    67  64  90 S5        29.85R
LINCOLN*       FAIR      70  67  90 S7        29.84R
SPRINGFIELD    FAIR      70  66  87 S6        29.85S
TAYLORVILLE    FAIR      68  64  88 S9        29.87R
$$

ILZ033-039-045-046-055>057-062-063-021600-
EAST-CENTRAL ILLINOIS

CITY           SKY/WX    TMP DP  RH WIND       PRES   REMARKS
CHAMPAIGN      FAIR      70  66  87 S15       29.89R
DANVILLE*      FAIR      70  66  88 S18       29.87R
RANTOUL*       FAIR      73  65  76 S16       29.88S
MATTOON        LGT RAIN  66  64  93 S18G26    29.87F
PARIS*         PTSUNNY   66  65  96 S20G26    29.91S
$$

ILZ079-100>102-021600-
SOUTHWEST ILLINOIS

CITY           SKY/WX    TMP DP  RH WIND       PRES   REMARKS
ALTON          SHOWER    68  66  94 SE12      29.88S
BELLEVILLE     PTSUNNY   72  71  95 NE5       29.89S
CAHOKIA*       PTSUNNY   72  69  90 E7        29.87F
SPARTA*        FAIR      78  68  72 S6        29.90S HX  80
$$

ILZ064>066-069>071-074>076-080>082-084>086-088>090-092>094-021600-
SOUTH-CENTRAL ILLINOIS

CITY           SKY/WX    TMP DP  RH WIND       PRES   REMARKS
CARBONDALE     PTSUNNY   79  68  69 S10G22    29.91F HX  81
CAIRO*         PTSUNNY   79  67  67 S8        29.93F HX  81
EFFINGHAM*     RAIN      69  65  89 SE8       29.93F
MARION         PTSUNNY   81  68  65 S12       29.93F HX  83
CENTRALIA*     PTSUNNY   75  62  64 S9        29.91F
SALEM*         PTSUNNY   74  68  82 SE5       29.92F
METROPOLIS*    FAIR      80  68  67 S9        29.93F HX  83
$$

ILZ067-068-072-073-078-083-087-091-021600-
SOUTHEAST ILLINOIS

CITY           SKY/WX    TMP DP  RH WIND       PRES   REMARKS
LAWRENCEVILLE  FAIR      73  61  65 E8        29.96F
FLORA*         FAIR      75  62  63 SE5       29.94S
FAIRFIELD*     FAIR      79  66  65 S3        29.92F HX  81
HARRISBURG*    FAIR      78  66  66 S12       29.94F HX  80
ROBINSON*      FAIR      72  65  80 SE7       29.96S
CARMI*         FAIR     N/A N/A N/A S12       29.93F
$$

ABBREVIATIONS USED IN REMARKS
   TC - TEMPERATURE IN CELSIUS
  WCI - WIND CHILL INDEX
   HX - HEAT INDEX
  VSB - VISIBILITY
$$




USA.gov is the U.S. government's official web portal to all federal, state and local government web resources and services.